Regional Weather Roundup
Issued by NWS Cleveland, OH

Home | Current Version | Previous Version | Graphics & Text | Print | Product List | Glossary On
Versions: 1 2 3 4 5 6 7 8 9 10 11 12 13 14 15 16 17 18 19 20 21 22 23 24 25 26 27 28 29 30 31 32 33 34 35 36 37 38 39 40 41 42 43 44 45 46 47 48 49 50
000
ASUS41 KCLE 180410
RWRCLE
OHIO REGIONAL WEATHER ROUNDUP
NATIONAL WEATHER SERVICE CLEVELAND, OH
1200 AM EDT THU SEP 18 2014

NOTE: "FAIR" INDICATES FEW OR NO CLOUDS BELOW 12,000 FEET WITH NO
SIGNIFICANT WEATHER AND/OR OBSTRUCTIONS TO VISIBILITY.

OHZ001>008-015>018-024>027-034-035-043-044-180500-
   NORTHWEST OHIO

CITY           SKY/WX    TMP DP  RH WIND       PRES   REMARKS
DEFIANCE       CLEAR     51  48  89 CALM      30.03R
FINDLAY        CLEAR     51  47  86 CALM      30.01R
TOLEDO EXPRESS CLEAR     50  48  93 CALM      30.02R
TOLEDO EXEC    PTCLDY    55  46  71 CALM      30.02R
LIMA           CLEAR     51  48  89 CALM      30.02R
$$

OHZ009>014-019>023-028>033-038-089-180500-
   NORTHEAST OHIO

CITY           SKY/WX    TMP DP  RH WIND       PRES   REMARKS
CLE-HOPKINS    PTCLDY    53  49  86 CALM      30.03R
CLE-LAKEFRONT  CLEAR     58  49  72 SE3       30.00R
CUY CO. ARPT   NOT AVBL
LORAIN-ELYRIA  MOCLDY    56  51  84 CALM      30.02R
ASHTABULA      CLEAR     47  46  97 CALM      30.02R FOG
AKRON-CANTON   MOCLDY    53  48  83 N6        30.01S
WOOSTER        PTCLDY    52  48  86 CALM      30.02S
MANSFIELD      PTCLDY    53  49  86 CALM      30.02R
YOUNGSTOWN     MOCLDY    49  48  97 CALM      30.02R
$$

OHZ042-051>053-060>062-070>072-077>081-180500-
  SOUTHWEST OHIO

CITY           SKY/WX    TMP DP  RH WIND       PRES   REMARKS
CINC-COVINGTON CLEAR     56  48  74 N5        30.02R
CINC-LUNKEN    CLEAR     51  50  96 CALM      30.02R FOG
HAMILTON       CLEAR     49  48  97 CALM      30.03R FOG
DAYTON         CLEAR     53  48  83 CALM      30.03R
WRIGHT-PAT AFB CLEAR     51  49  91 W1        30.02S
DAYTON GENERAL CLEAR     53  49  86 NW3       30.02R
WILMINGTON     CLEAR     48  45  89 CALM      30.02R
$$

OHZ036-037-039>041-045>050-054>059-063>069-073>076-082>088-180500-
  CENTRAL AND SOUTHEAST OHIO

CITY           SKY/WX    TMP DP  RH WIND       PRES   REMARKS
COLUMBUS       PTCLDY    56  49  77 CALM      30.01R
OSU AIRPORT    PTCLDY    53  47  79 NW5       30.01R
BOLTON FIELD   CLEAR     52  48  87 NW5       30.02R
RICKENBACK AFB CLEAR     52  47  83 CALM      30.00S
NEWARK         CLEAR     49  46  90 CALM      30.01R
MARION         MOCLDY    51  47  86 NE3       30.02R
LANCASTER      CLEAR     48  45  89 CALM      30.01S FOG
ZANESVILLE     CLEAR     51  48  89 CALM      30.01R
NEW PHILLY     MOCLDY    51  50  96 CALM      30.02R
$$



USA.gov is the U.S. government's official web portal to all federal, state and local government web resources and services.